Tracking 28790 objects as of 19-Apr-2024
HD Live streaming from Space Station
objects crossing your sky now

ATLAS CENTAUR R/B

Track ATLAS CENTAUR R/B now!
10-day predictions


NORAD ID: 3598
Int'l Code: 1968-110B
Perigee: 679.5 km
Apogee: 748.4 km
Inclination: 35.0 °
Period: 98.9 minutes
Semi major axis: 7084 km
RCS: 13.279 m2 (large)
Launch date: December 7, 1968
Source: United States (US)
Launch site: AIR FORCE EASTERN TEST RANGE (AFETR)

Note: This is a ROCKET BODY
Your satellite tracking list
Your tracking list is empty




NASA's NSSDC Master Catalog

Two Line Element Set (TLE):
1 03598U 68110B   24109.84504419  .00001676  00000-0  37589-3 0  9997
2 03598  34.9930 265.7920 0048655 337.8612  21.9982 14.55791363909456
Source of the keplerian elements: AFSPC